Previsão horária em Aarberg

Hoje, 17 Abril, Sábado

Tempo Temperatura Precipitação Vento Pressão Humidade
00:00 -2°C° 0 mm 2 m/s 719 mmHg 91%
01:00 -3°C° 0 mm 2 m/s 719 mmHg 92%
02:00 -3°C° 0 mm 2 m/s 718 mmHg 93%
03:00 -4°C° 0 mm 2 m/s 718 mmHg 94%
04:00 -3°C° 0 mm 2 m/s 718 mmHg 91%
05:00 -2°C° 0 mm 2 m/s 718 mmHg 87%
06:00 -1°C° 0 mm 2 m/s 718 mmHg 84%
07:00 +1°C° 0 mm 3 m/s 718 mmHg 76%
08:00 +1°C° 0 mm 4 m/s 718 mmHg 67%
09:00 +4°C° 0 mm 4 m/s 718 mmHg 58%
10:00 +6°C° 0 mm 4 m/s 718 mmHg 54%
11:00 +7°C° 0 mm 4 m/s 717 mmHg 49%
12:00 +8°C° 0 mm 5 m/s 717 mmHg 44%
13:00 +8°C° 0 mm 5 m/s 717 mmHg 48%
14:00 +8°C° 0 mm 5 m/s 717 mmHg 53%
15:00 +8°C° 0 mm 5 m/s 716 mmHg 57%
16:00 +6°C° 0 mm 4 m/s 717 mmHg 64%
17:00 +5°C° 0 mm 3 m/s 717 mmHg 70%
18:00 +4°C° 0 mm 3 m/s 717 mmHg 77%
19:00 +4°C° 0 mm 2 m/s 717 mmHg 81%
20:00 +3°C° 0 mm 2 m/s 717 mmHg 86%
21:00 +3°C° 0 mm 1 m/s 718 mmHg 90%
22:00 +2°C° 0 mm 1 m/s 717 mmHg 91%
23:00 +2°C° 0 mm 1 m/s 717 mmHg 92%

Amanhã, 18 Abril, Domingo

Tempo Temperatura Precipitação Vento Pressão Humidade
00:00 +2°C° 0 mm 1 m/s 717 mmHg 93%
01:00 +2°C° 0 mm 1 m/s 717 mmHg 93%
02:00 +2°C° 0 mm 1 m/s 717 mmHg 93%
03:00 +2°C° 0 mm 1 m/s 717 mmHg 93%
04:00 +3°C° 0 mm 1 m/s 717 mmHg 92%
05:00 +3°C° 0 mm 1 m/s 717 mmHg 92%
06:00 +4°C° 0 mm 1 m/s 717 mmHg 91%
07:00 +4°C° 0 mm 1 m/s 718 mmHg 88%
08:00 +4°C° 0 mm 2 m/s 718 mmHg 86%
09:00 +5°C° 0 mm 2 m/s 718 mmHg 83%
10:00 +6°C° 0.1 mm 2 m/s 718 mmHg 78%
11:00 +6°C° 0.1 mm 2 m/s 718 mmHg 73%
12:00 +7°C° 0.1 mm 2 m/s 718 mmHg 68%
13:00 +7°C° 0 mm 2 m/s 717 mmHg 68%
14:00 +7°C° 0 mm 2 m/s 717 mmHg 68%
15:00 +7°C° 0 mm 2 m/s 717 mmHg 68%
16:00 +7°C° 0 mm 2 m/s 717 mmHg 73%
17:00 +6°C° 0 mm 2 m/s 718 mmHg 79%
18:00 +6°C° 0 mm 1 m/s 718 mmHg 85%
19:00 +5°C° 0 mm 1 m/s 718 mmHg 88%
20:00 +4°C° 0 mm 1 m/s 718 mmHg 90%
21:00 +3°C° 0 mm 1 m/s 718 mmHg 93%
22:00 +2°C° 0 mm 1 m/s 718 mmHg 93%
23:00 +2°C° 0 mm 1 m/s 718 mmHg 94%

Depois de amanhã, 19 Abril, Segunda-feira

Tempo Temperatura Precipitação Vento Pressão Humidade
00:00 +1°C° 0 mm 1 m/s 718 mmHg 94%
01:00 +1°C° 0 mm 1 m/s 718 mmHg 94%
02:00 +1°C° 0 mm 1 m/s 717 mmHg 94%
03:00 +1°C° 0 mm 1 m/s 717 mmHg 94%
04:00 +1°C° 0 mm 0 m/s 717 mmHg 92%
05:00 +2°C° 0 mm 0 m/s 717 mmHg 89%
06:00 +3°C° 0 mm 0 m/s 717 mmHg 87%
07:00 +5°C° 0 mm 1 m/s 717 mmHg 81%
08:00 +7°C° 0 mm 1 m/s 717 mmHg 75%
09:00 +9°C° 0 mm 1 m/s 717 mmHg 68%
10:00 +8°C° 0 mm 2 m/s 716 mmHg 66%
11:00 +9°C° 0 mm 2 m/s 716 mmHg 63%
12:00 +9°C° 0 mm 2 m/s 716 mmHg 60%
13:00 +9°C° 0.1 mm 2 m/s 716 mmHg 60%
14:00 +10°C° 0.1 mm 2 m/s 715 mmHg 60%
15:00 +10°C° 0.1 mm 2 m/s 715 mmHg 60%
16:00 +8°C° 0 mm 2 m/s 715 mmHg 67%
17:00 +8°C° 0 mm 1 m/s 715 mmHg 74%
18:00 +7°C° 0 mm 1 m/s 715 mmHg 82%
19:00 +5°C° 0 mm 1 m/s 715 mmHg 85%
20:00 +4°C° 0 mm 1 m/s 715 mmHg 87%
21:00 +3°C° 0 mm 1 m/s 715 mmHg 90%
22:00 +3°C° 0 mm 1 m/s 715 mmHg 90%
23:00 +2°C° 0 mm 1 m/s 715 mmHg 90%

20 Abril, Terça-feira

Tempo Temperatura Precipitação Vento Pressão Humidade
00:00 +2°C° 0 mm 1 m/s 715 mmHg 90%
01:00 +2°C° 0 mm 1 m/s 715 mmHg 90%
02:00 +2°C° 0 mm 1 m/s 715 mmHg 90%
03:00 +1°C° 0 mm 1 m/s 714 mmHg 90%
04:00 +2°C° 0 mm 1 m/s 714 mmHg 87%
05:00 +3°C° 0 mm 1 m/s 714 mmHg 84%
06:00 +3°C° 0 mm 0 m/s 714 mmHg 81%
07:00 +6°C° 0 mm 1 m/s 714 mmHg 72%
08:00 +9°C° 0 mm 1 m/s 714 mmHg 63%
09:00 +11°C° 0 mm 1 m/s 714 mmHg 54%
10:00 +12°C° 0 mm 1 m/s 714 mmHg 50%
11:00 +13°C° 0 mm 2 m/s 713 mmHg 46%
12:00 +14°C° 0 mm 2 m/s 713 mmHg 42%
13:00 +14°C° 0 mm 2 m/s 713 mmHg 42%
14:00 +15°C° 0 mm 1 m/s 712 mmHg 42%
15:00 +15°C° 0 mm 1 m/s 712 mmHg 41%
16:00 +13°C° 0 mm 1 m/s 712 mmHg 51%
17:00 +11°C° 0 mm 1 m/s 712 mmHg 61%
18:00 +9°C° 0 mm 1 m/s 713 mmHg 71%
19:00 +8°C° 0 mm 1 m/s 713 mmHg 76%
20:00 +7°C° 0 mm 1 m/s 713 mmHg 80%
21:00 +6°C° 0 mm 1 m/s 714 mmHg 85%
22:00 +5°C° 0 mm 1 m/s 714 mmHg 86%
23:00 +5°C° 0 mm 1 m/s 714 mmHg 86%

21 Abril, Quarta-feira

Tempo Temperatura Precipitação Vento Pressão Humidade
00:00 +4°C° 0 mm 1 m/s 714 mmHg 87%
01:00 +4°C° 0 mm 1 m/s 714 mmHg 87%
02:00 +4°C° 0 mm 1 m/s 714 mmHg 88%
03:00 +3°C° 0 mm 1 m/s 714 mmHg 88%
04:00 +3°C° 0 mm 0 m/s 714 mmHg 85%
05:00 +4°C° 0 mm 0 m/s 715 mmHg 82%
06:00 +5°C° 0 mm 0 m/s 715 mmHg 78%
07:00 +7°C° 0 mm 0 m/s 715 mmHg 71%
08:00 +10°C° 0 mm 0 m/s 715 mmHg 64%
09:00 +13°C° 0 mm 1 m/s 715 mmHg 56%
10:00 +14°C° 0.1 mm 1 m/s 715 mmHg 54%
11:00 +15°C° 0.1 mm 1 m/s 715 mmHg 51%
12:00 +15°C° 0.1 mm 1 m/s 714 mmHg 49%
13:00 +15°C° 0.2 mm 2 m/s 714 mmHg 52%
14:00 +14°C° 0.2 mm 3 m/s 714 mmHg 56%
15:00 +14°C° 0.2 mm 3 m/s 714 mmHg 59%
16:00 +12°C° 0.5 mm 3 m/s 715 mmHg 70%
17:00 +10°C° 0.5 mm 2 m/s 715 mmHg 81%
18:00 +9°C° 0.5 mm 1 m/s 716 mmHg 92%
19:00 +9°C° 0.3 mm 1 m/s 716 mmHg 93%
20:00 +8°C° 0.3 mm 1 m/s 717 mmHg 94%
21:00 +8°C° 0.3 mm 1 m/s 717 mmHg 95%
22:00 +8°C° 0.1 mm 1 m/s 717 mmHg 95%
23:00 +7°C° 0.1 mm 1 m/s 718 mmHg 95%

22 Abril, Quinta-feira

Tempo Temperatura Precipitação Vento Pressão Humidade
00:00 +7°C° 0.1 mm 1 m/s 718 mmHg 95%
01:00 +7°C° 0 mm 1 m/s 718 mmHg 95%
02:00 +6°C° 0 mm 1 m/s 718 mmHg 94%
03:00 +6°C° 0 mm 1 m/s 718 mmHg 94%
04:00 +6°C° 0 mm 1 m/s 718 mmHg 93%
05:00 +5°C° 0 mm 1 m/s 719 mmHg 92%
06:00 +5°C° 0 mm 1 m/s 719 mmHg 91%
07:00 +7°C° 0 mm 1 m/s 719 mmHg 83%
08:00 +8°C° 0 mm 1 m/s 720 mmHg 74%
09:00 +9°C° 0 mm 1 m/s 720 mmHg 65%
10:00 +9°C° 0 mm 2 m/s 720 mmHg 57%
11:00 +10°C° 0 mm 2 m/s 720 mmHg 49%
12:00 +11°C° 0 mm 3 m/s 720 mmHg 41%
13:00 +11°C° 0 mm 3 m/s 720 mmHg 40%
14:00 +11°C° 0 mm 4 m/s 720 mmHg 39%
15:00 +9°C° 0 mm 5 m/s 720 mmHg 39%
16:00 +8°C° 0 mm 4 m/s 720 mmHg 48%
17:00 +7°C° 0 mm 3 m/s 721 mmHg 57%
18:00 +5°C° 0 mm 2 m/s 721 mmHg 67%
19:00 +4°C° 0 mm 2 m/s 722 mmHg 73%
20:00 +4°C° 0 mm 1 m/s 722 mmHg 79%
21:00 +2°C° 0 mm 1 m/s 722 mmHg 85%
22:00 +2°C° 0 mm 1 m/s 722 mmHg 86%
23:00 +2°C° 0 mm 1 m/s 722 mmHg 88%
Mostrar mais